N7QNM-13 Weather Reports


Display with metric or nautical units.
time (UTC)temp
F
wind
direction
speed
MPH
gust
MPH
rain 1hr
in
rain 24hr
in
rain mn
in
humidity
%
barometer
mb
20210118035024 33 95 1.0 2.0 0.00 0.00 0.00 97 1026.8
20210118034027 33 201 2.0 3.0 0.00 0.00 0.00 97 1026.5
20210118033022 33 267 3.0 4.0 0.00 0.00 0.00 97 1026.4
20210118032034 34 110 2.0 2.0 0.00 0.00 0.00 97 1026.5
20210118031042 35 192 2.0 2.0 0.00 0.00 0.00 97 1026.6
20210118030041 35 90 3.0 4.0 0.00 0.00 0.00 95 1026.6
20210118025037 36 107 1.0 3.0 0.00 0.00 0.00 94 1026.6
20210118024024 37 131 3.0 3.0 0.00 0.00 0.00 93 1026.5
20210118023030 38 190 3.0 3.0 0.00 0.00 0.00 92 1026.5
20210118022038 37 240 1.0 3.0 0.00 0.00 0.00 92 1026.3
20210118021025 38 190 3.0 4.0 0.00 0.00 0.00 91 1026.5
20210118020040 39 209 2.0 4.0 0.00 0.00 0.00 91 1026.4
20210118015042 39 135 1.0 2.0 0.00 0.00 0.00 89 1026.4
20210118014041 40 169 5.0 5.0 0.00 0.00 0.00 88 1026.3
20210118013048 41 196 4.0 5.0 0.00 0.00 0.00 88 1026.2
20210118012033 41 199 3.0 3.0 0.00 0.00 0.00 89 1026.4
20210118011037 40 180 3.0 4.0 0.00 0.00 0.00 89 1026.2
20210118010034 41 177 4.0 5.0 0.00 0.00 0.00 87 1026.3
20210118005041 41 182 4.0 4.0 0.00 0.00 0.00 87 1026.2
20210118004037 42 187 4.0 5.0 0.00 0.00 0.00 87 1026.4
20210118003033 42 205 2.0 3.0 0.00 0.00 0.00 86 1026.3
20210118002044 43 179 4.0 5.0 0.00 0.00 0.00 86 1026.3
20210118001030 44 187 3.0 4.0 0.00 0.00 0.00 84 1026.2
20210118000104 44 180 2.0 3.0 0.00 0.00 0.00 83 1026.2
20210117235154 45 188 2.0 2.0 0.00 0.00 0.00 82 1026.0
20210117234036 45 219 2.0 3.0 0.00 0.00 0.00 81 1025.9
20210117233027 46 232 1.0 2.0 0.00 0.00 0.00 80 1026.0
20210117232054 0 0.0 0.0 0.00 0.00 0.00
20210117231037 0 0.0 0.0 0.00 0.00 0.00
20210117230047 47 306 2.0 3.0 0.00 0.00 0.00 78 1026.0
20210117225028 47 337 3.0 4.0 0.00 0.00 0.00 78 1025.9
20210117224048 48 296 3.0 4.0 0.00 0.00 0.00 78 1025.8
20210117223035 48 273 4.0 5.0 0.00 0.00 0.00 77 1025.8
20210117222027 48 266 4.0 5.0 0.00 0.00 0.00 76 1025.7
20210117221025 48 272 3.0 5.0 0.00 0.00 0.00 75 1025.7
20210117220037 49 255 2.0 3.0 0.00 0.00 0.00 73 1025.9
20210117215040 48 229 1.0 3.0 0.00 0.00 0.00 74 1025.9
20210117214035 48 204 2.0 2.0 0.00 0.00 0.00 76 1025.9
20210117213047 48 258 1.0 3.0 0.00 0.00 0.00 75 1025.9
20210117212037 46 248 2.0 3.0 0.00 0.00 0.00 79 1026.0
20210117211036 46 310 2.0 4.0 0.00 0.00 0.00 78 1026.0
20210117210105 46 277 4.0 5.0 0.00 0.00 0.00 79 1026.1
20210117205033 46 286 3.0 5.0 0.00 0.00 0.00 79 1026.0
20210117204031 45 248 2.0 3.0 0.00 0.00 0.00 81 1026.1
20210117203023 44 307 4.0 5.0 0.00 0.00 0.00 82 1026.2
20210117202038 44 271 4.0 6.0 0.00 0.00 0.00 81 1026.1
20210117201040 45 284 3.0 5.0 0.00 0.00 0.00 81 1026.2
20210117200039 44 265 3.0 5.0 0.00 0.00 0.00 82 1026.2
20210117195036 43 271 4.0 5.0 0.00 0.00 0.00 83 1026.3
20210117194027 42 279 4.0 6.0 0.00 0.00 0.00 85 1026.1
20210117193029 41 307 5.0 5.0 0.00 0.00 0.00 86 1025.8
20210117192032 41 277 4.0 5.0 0.00 0.00 0.00 87 1025.9
20210117191021 41 272 4.0 6.0 0.00 0.00 0.00 86 1025.8
20210117190038 42 289 4.0 5.0 0.00 0.00 0.00 86 1025.8
20210117185029 40 259 3.0 4.0 0.00 0.00 0.00 87 1025.8
20210117184049 40 264 2.0 3.0 0.00 0.00 0.00 89 1025.8
20210117183021 38 256 2.0 3.0 0.00 0.00 0.00 92 1025.8
20210117182038 37 0.0 0.0 0.00 0.00 0.00 94 1025.6
20210117181032 37 0.0 0.0 0.00 0.00 0.00 94 1025.4
20210117180033 36 0.0 1.0 0.00 0.00 0.00 95 1025.4
20210117175037 36 162 2.0 2.0 0.00 0.00 0.00 94 1025.0
20210117174043 36 136 1.0 3.0 0.00 0.00 0.00 94 1025.2
20210117173043 36 0.0 0.0 0.00 0.00 0.00 95 1025.2
20210117172032 35 92 3.0 3.0 0.00 0.00 0.00 96 1025.0
20210117171042 36 73 4.0 5.0 0.00 0.00 0.00 95 1024.7
20210117170057 34 0.0 0.0 0.00 0.00 0.00 97 1024.4
20210117165028 33 0.0 1.0 0.00 0.00 0.00 97 1024.4
20210117164025 33 246 2.0 3.0 0.00 0.00 0.00 97 1024.0
20210117163037 32 148 2.0 3.0 0.00 0.00 0.00 97 1024.0
20210117162021 32 21 1.0 2.0 0.00 0.00 0.00 97 1024.2
20210117161036 33 189 3.0 3.0 0.00 0.00 0.00 97 1024.1
20210117160054 33 181 3.0 4.0 0.00 0.00 0.00 97 1024.3
20210117155028 31 132 2.0 3.0 0.00 0.00 0.00 97 1024.4
20210117154032 32 97 2.0 2.0 0.00 0.00 0.00 97 1024.0
20210117153029 32 175 3.0 4.0 0.00 0.00 0.00 97
20210117152026 33 177 3.0 4.0 0.00 0.00 0.00 97
20210117151026 33 0.0 0.0 0.00 0.00 0.00 97
20210117150036 34 151 1.0 2.0 0.00 0.00 0.00 97
20210117145025 34 81 2.0 3.0 0.00 0.00 0.00 97
20210117144038 34 135 2.0 2.0 0.00 0.00 0.00 97
20210117143038 34 74 1.0 2.0 0.00 0.00 0.00 97
20210117142025 35 234 0.0 2.0 0.00 0.00 0.00 97
20210117141026 35 247 2.0 2.0 0.00 0.00 0.00 97
20210117140052 35 0.0 0.0 0.00 0.00 0.00 97
20210117135025 35 270 2.0 2.0 0.00 0.00 0.00 97
20210117134023 35 168 1.0 3.0 0.00 0.00 0.00 97
20210117133037 35 195 2.0 3.0 0.00 0.00 0.00 97
20210117132027 35 197 1.0 2.0 0.00 0.00 0.00 97
20210117131029 35 317 3.0 4.0 0.00 0.00 0.00 97
20210117130026 35 288 2.0 3.0 0.00 0.00 0.00 97
20210117125024 34 184 3.0 3.0 0.00 0.00 0.00 97
20210117124022 34 186 3.0 3.0 0.00 0.00 0.00 97
20210117123028 34 350 2.0 4.0 0.00 0.00 0.00 97
20210117122026 34 338 1.0 2.0 0.00 0.00 0.00 97
20210117121029 34 185 1.0 2.0 0.00 0.00 0.00 97
20210117120039 34 260 2.0 3.0 0.00 0.00 0.00 97
20210117115031 34 0.0 0.0 0.00 0.00 0.00 97
20210117114038 34 0.0 0.0 0.00 0.00 0.00 97
20210117113024 34 315 0.0 2.0 0.00 0.00 0.00 97
20210117112025 35 262 3.0 4.0 0.00 0.00 0.00 97
20210117111106 35 220 1.0 3.0 0.00 0.00 0.00 97
20210117110034 35 207 0.0 2.0 0.00 0.00 0.00 96
20210117105029 35 284 2.0 3.0 0.00 0.00 0.00 96
20210117104031 35 171 2.0 4.0 0.00 0.00 0.00 96 1024.0
20210117103037 36 264 0.0 2.0 0.00 0.00 0.00 96 1024.3
20210117102028 36 269 2.0 3.0 0.00 0.00 0.00 96 1024.5
20210117101029 36 0.0 0.0 0.00 0.00 0.00 96 1024.5
20210117100056 36 0.0 0.0 0.00 0.00 0.00 96 1024.4
20210117095030 36 267 2.0 3.0 0.00 0.00 0.00 96 1024.8
20210117094026 36 0.0 0.0 0.00 0.00 0.00 95 1024.6
20210117093030 36 270 2.0 3.0 0.00 0.00 0.00 95 1024.7
20210117092028 37 275 3.0 4.0 0.00 0.00 0.00 94 1024.8
20210117091040 37 224 3.0 5.0 0.00 0.00 0.00 94 1024.9
20210117090031 37 184 5.0 7.0 0.00 0.00 0.00 94 1025.0
20210117085024 37 190 4.0 5.0 0.00 0.00 0.00 94 1024.9
20210117084037 37 173 4.0 5.0 0.00 0.00 0.00 94 1025.0
20210117083032 37 112 2.0 3.0 0.00 0.00 0.00 94 1025.3
20210117082027 37 178 5.0 7.0 0.00 0.00 0.00 94 1025.0
20210117081052 37 188 5.0 8.0 0.00 0.00 0.00 94 1025.4
20210117080023 37 188 3.0 5.0 0.00 0.00 0.00 94 1025.6
20210117075030 37 21 3.0 6.0 0.00 0.00 0.00 94 1025.7
20210117074023 37 157 7.0 9.0 0.00 0.00 0.00 93 1025.3
20210117073023 37 237 3.0 6.0 0.00 0.00 0.00 92 1025.5
20210117072034 37 165 6.0 10.0 0.00 0.00 0.00 92 1025.3
20210117071021 38 195 6.0 9.0 0.00 0.00 0.00 92 1025.5
20210117070035 37 191 5.0 8.0 0.00 0.00 0.00 92 1025.3
20210117065028 37 189 6.0 8.0 0.00 0.00 0.00 92 1025.4
20210117064022 38 167 6.0 9.0 0.00 0.00 0.00 92 1025.4
20210117063031 38 176 7.0 8.0 0.00 0.00 0.00 91 1025.5
20210117062026 37 159 6.0 9.0 0.00 0.00 0.00 91 1025.7
20210117061025 37 171 8.0 12.0 0.00 0.00 0.00 91 1025.7
20210117060053 38 183 6.0 9.0 0.00 0.00 0.00 91 1026.0
20210117055030 37 179 4.0 8.0 0.00 0.00 0.00 91 1026.4
20210117054040 37 193 5.0 7.0 0.00 0.00 0.00 92 1026.2
20210117053032 36 161 3.0 5.0 0.00 0.00 0.00 92 1026.0
20210117052030 36 286 4.0 7.0 0.00 0.00 0.00 92 1026.5
20210117051031 36 330 4.0 5.0 0.00 0.00 0.00 92 1026.4
20210117050035 37 331 3.0 4.0 0.00 0.00 0.00 91 1026.4
20210117045025 37 297 4.0 5.0 0.00 0.00 0.00 91 1026.4
20210117044033 37 225 0.0 2.0 0.00 0.00 0.00 91 1026.4
20210117043029 36 163 8.0 10.0 0.00 0.00 0.00 92 1026.6
20210117042030 37 179 6.0 8.0 0.00 0.00 0.00 91 1027.1
20210117041029 37 190 6.0 8.0 0.00 0.00 0.00 92 1026.8
20210117040528 37 158 7.0 8.0 0.00 0.00 0.00 91 1026.8